TIME,DELAY(SENSOR),PRES,OXYGEN,RAWTEMP,T(OPTODE),TCPHASE,FLUOR,BETA(BETA700),BETA(BETA412),BETA(BETA440),CDOM,C(CSC),ED(ED412.20),ED(ED444.00),ED(ED489.60),ED(ED554.30),LU(LU412.10),LU(LU443.90),LU(LU489.70),LU(LU554.70),COMP,TILTX,TILTY,CHECK
1336967620,5808,882.0599975585938000,42.0538597106933600,565.0482177734375000,4.3293361663818360,55.2550315856933600,55,102,102,78,83,15484,0,0,0,0,2147123885,2147780379,2147570413,2147570413,989,2,13,59
1336971216,5810,968.1099853515625000,43.8269882202148440,575.4047241210938000,4.0074810981750490,55.1122398376464840,56,100,101,78,83,15486,0,0,0,0,2147126948,2147781668,2147569481,2147572662,799,2,13,42934
1336974816,5808,983.3200073242188000,43.7326393127441400,575.1864013671875000,4.0142769813537600,55.1274108886718750,55,99,101,79,83,15477,0,0,0,0,2147122413,2147778624,2147571099,2147573440,3500,2,13,23660
1336978416,5810,996.9000244140625000,42.6541404724121100,575.5183105468750000,4.0039458274841310,55.2864608764648440,54,100,102,79,85,15484,0,0,0,0,2147122642,2147773723,2147571465,2147569764,3392,2,13,27252
1336982016,5809,997.0499877929688000,43.5742492675781250,575.5433959960938000,4.0031661987304690,55.1534881591796900,56,100,102,78,84,15463,0,0,0,0,2147122624,2147780068,2147571986,2147573641,695,2,13,39049
1336985616,5808,996.2500000000000000,45.2106781005859400,575.1480712890625000,4.0154671669006350,54.9172096252441400,54,99,102,78,83,15455,0,0,0,0,2147127926,2147775963,2147574006,2147569993,567,2,13,8884
1336989216,5809,1001.4899902343750000,43.4618988037109400,575.4439697265625000,4.0062599182128910,55.1692504882812500,55,100,102,78,83,15454,0,0,0,0,2147126912,2147780160,2147574976,2147572352,173,2,13,64666
1336992816,5809,998.8599853515625000,45.4252510070800800,574.9373168945312000,4.0220298767089840,54.8819007873535160,55,99,100,78,84,15456,0,0,0,0,2147124790,2147775808,2147571300,2147576329,963,2,13,10360
1336996416,5809,994.1599731445312000,45.8834304809570300,575.6981201171875000,3.9983499050140380,54.8253707885742200,54,101,102,78,85,15452,0,0,0,0,2147125193,2147776219,2147569755,2147572187,3505,2,13,41902
1337000016,5810,991.5900268554688000,45.9644088745117200,575.9998168945312000,3.9889619350433350,54.8215713500976560,55,100,102,79,83,15451,0,0,0,0,2147125522,2147776950,2147565312,2147571648,633,2,13,10226
1337003616,5810,990.3200073242188000,46.1107406616210940,576.3740234375000000,3.9773139953613280,54.8069686889648440,56,101,101,79,84,15448,0,0,0,0,2147125641,2147777636,2147573513,2147571922,4,2,13,53633
1337007216,5810,991.0499877929688000,45.8129081726074200,576.4420166015625000,3.9751949310302734,54.8449211120605500,55,102,101,79,83,15447,0,0,0,0,2147126592,2147778404,2147572251,2147574454,40,2,13,27298
1337010816,5811,1000.1099853515625000,46.0548095703125000,575.6757812500000000,3.9990429878234863,54.8076210021972660,55,107,102,80,83,15448,0,0,0,0,2147127360,2147778523,2147569307,2147570788,197,2,13,26970
1337014416,5810,990.9299926757812000,45.7541198730468750,575.9879150390625000,3.9893319606781006,54.8500900268554700,54,101,102,79,84,15450,0,0,0,0,2147128082,2147776274,2147574592,2147572269,670,2,13,52949
1337018016,5810,994.9000244140625000,45.3151397705078100,576.8280029296875000,3.9631791114807130,54.9220504760742200,55,101,101,79,83,15450,0,0,0,0,2147125193,2147779282,2147574701,2147571053,141,2,13,56637
1337021616,5811,1004.5100097656250000,45.7374992370605500,575.2910156250000000,4.0110230445861820,54.8435401916503900,55,98,103,79,83,15449,0,0,0,0,2147124745,2147777417,2147573129,2147574601,412,2,13,57204
1337025216,5810,1002.7700195312500000,44.8380012512207000,575.3092041015625000,4.0104541778564450,54.9721717834472660,56,100,101,77,83,15447,0,0,0,0,2147123922,2147774473,2147573302,2147571108,468,2,13,64187
1337028816,5809,1003.3599853515625000,45.6764602661132800,575.8760986328125000,3.9928109645843506,54.8626594543457000,54,103,103,78,84,15446,0,0,0,0,2147125467,2147782729,2147576228,2147575360,129,2,13,30227
1337032416,5808,998.7600097656250000,45.9972496032714840,577.3366699218750000,3.9473400115966797,54.8331413269043000,55,100,102,79,82,15443,0,0,0,0,2147124096,2147782738,2147575076,2147573074,113,2,13,18306
1337036016,5810,997.4500122070312000,45.6817703247070300,576.2125244140625000,3.9823420047760010,54.8609504699707000,55,125,102,80,84,15444,0,0,0,0,2147122779,2147775250,2147571922,2147572178,704,2,13,47646
1337039616,5809,1000.5000000000000000,46.3382492065429700,577.2341918945312000,3.9505310058593750,54.7806892395019500,55,99,102,77,84,15443,0,0,0,0,2147127030,2147773961,2147574628,2147575296,249,2,13,47093
1337043216,5810,991.4600219726562000,46.5912094116210940,577.2487792968750000,3.9500749111175537,54.7465591430664060,55,100,101,79,83,15443,0,0,0,0,2147125705,2147776795,2147569005,2147573705,340,2,13,18043
1337046816,5810,997.4699707031250000,45.9791603088378900,577.2108764648438000,3.9512579441070557,54.8356590270996100,54,100,102,79,82,15443,0,0,0,0,2147122368,2147779044,2147571830,2147569042,553,2,13,59657
1337050416,5809,997.7700195312500000,46.0882797241210940,577.2388916015625000,3.9503839015960693,54.8166999816894500,54,100,101,79,83,15435,0,0,0,0,2147123145,2147772507,2147575936,2147570011,78,2,13,55501
1337054016,5809,996.3900146484375000,46.4448699951171900,577.1038818359375000,3.9545900821685790,54.7636985778808600,55,100,102,78,83,15441,0,0,0,0,2147129938,2147778496,2147573193,2147572114,495,2,13,32159
1337057616,5812,1012.8400268554688000,46.9274787902832000,577.2006835937500000,3.9515740871429443,54.6982994079589840,54,100,102,79,83,15434,0,0,0,0,2147124086,2147775634,2147571446,2147571776,3525,2,13,9237
1337061216,5811,1011.5399780273438000,46.1650085449218750,575.8825073242188000,3.9926109313964844,54.7890281677246100,55,100,102,79,83,15433,0,0,0,0,2147123702,2147775469,2147576640,2147573366,250,2,13,57160
1337064816,5810,1004.8099975585938000,45.6978111267089840,575.8275756835938000,3.9943199157714844,54.8543891906738300,55,100,102,78,84,15431,0,0,0,0,2147126253,2147774336,2147575012,2147570230,110,2,13,1953
1337068416,5811,1005.1699829101562000,44.3529090881347660,576.0529174804688000,3.9873070716857910,55.0487403869628900,54,99,102,78,84,15433,0,0,0,0,2147123145,2147780086,2147574235,2147573577,3510,2,13,54695
1337072016,5810,1010.1699829101562000,44.5577392578125000,575.5211181640625000,4.0038619041442870,55.0185203552246100,54,98,102,78,83,15436,0,0,0,0,2147127945,2147776292,2147573421,2147573659,3324,2,13,40406
1337075616,5808,1019.2199707031250000,43.5487403869628900,574.8156127929688000,4.0258140563964840,55.1491317749023440,55,98,102,80,84,15433,0,0,0,0,2147128182,2147778267,2147573184,2147570816,647,2,13,4500
1337079216,5809,1006.4199829101562000,43.3002815246582000,575.4987182617188000,4.0045571327209470,55.1951293945312500,54,100,101,77,83,15431,0,0,0,0,2147126875,2147778313,2147571245,2147570130,157,2,13,34082
1337082816,5810,1000.1099853515625000,45.3314514160156250,576.4437866210938000,3.9751400947570800,54.9171104431152340,55,102,102,79,85,15436,0,0,0,0,2147127451,2147776100,2147576978,2147573787,560,2,13,5291
1337086416,5808,1000.2000122070312000,46.5642814636230500,576.9907836914062000,3.9581110477447510,54.7505111694335940,55,100,102,79,82,15434,0,0,0,0,2147124736,2147772781,2147577042,2147572635,665,2,13,63183
1337090016,5809,996.1400146484375000,46.0618705749511700,577.2020874023438000,3.9515290260314940,54.8248100280761700,54,104,102,78,83,15433,0,0,0,0,2147124525,2147773604,2147572379,2147575515,2639,2,13,33765
1337093616,5810,998.9099731445312000,46.1073989868164060,577.2293701171875000,3.9506819248199463,54.8157196044921900,56,100,101,78,84,15430,0,0,0,0,2147125321,2147776274,2147574921,2147573897,3274,2,13,54965
1337097216,5810,999.9099731445312000,45.7360801696777340,577.3115234375000000,3.9481260776519775,54.8669013977050800,54,102,101,78,84,15429,0,0,0,0,2147124662,2147779209,2147573056,2147571072,3435,2,13,6908
1337100816,5811,1006.5700073242188000,44.8374290466308600,577.2384033203125000,3.9504010677337646,54.9961013793945300,56,100,101,78,84,15430,0,0,0,0,2147122459,2147781147,2147573403,2147574125,3332,2,13,35769
1337104416,5808,1007.3599853515625000,46.6581382751464840,577.1901855468750000,3.9519000053405760,54.7368507385253900,55,103,103,79,83,15417,0,0,0,0,2147123355,2147772068,2147572068,2147570294,358,2,13,54839
1337108016,5809,1007.0900268554688000,45.6306381225585940,576.7360229492188000,3.9660429954528810,54.8783607482910160,55,100,101,79,85,15420,0,0,0,0,2147124946,2147779017,2147571940,2147571648,113,2,13,17348
1337111456,5809,1010.2800292968750000,45.7193489074707000,576.1817016601562000,3.9832990169525146,54.8566703796386700,56,98,102,78,83,15421,0,0,0,0,2147126244,2147774646,2147574244,2147571309,3474,2,13,19681
